Location: Newark
(53.3469°N, 7.1606°E)
Time: 05:25:19
(UTC+00:00)

N. Korean satellite - Pass Details

Date: 15 November 2019
Orbit: 455 x 506 km, 97.2° (Epoch: 12 December)

Event Time Altitude Azimuth Distance (km) Brightness Sun altitude
Rises 04:39:54 0° 23° (NNE) 2,627 10.5 -20.0°
Reaches altitude 10° 04:42:22 10° 39° (NE) 1,735 9.8 -19.6°
Maximum altitude 04:45:21 22° 92° (E) 1,140 9.3 -19.2°
Drops below altitude 10° 04:48:18 10° 145° (SE) 1,714 9.9 -18.7°
Sets 04:50:42 0° 161° (SSE) 2,586 10.6 -18.4°
